Tracking 31027 objects as of 19-Jul-2025
HD Live streaming from Space Station
objects crossing your sky now

OPS 4029

Track OPS 4029 now!
OPS 4029 is classified as:


NORAD ID: 12930
Int'l Code: 1981-107A
Perigee: 31,451.7 km
Apogee: 40,120.5 km
Inclination: 5.6 °
Period: 1,435.7 minutes
Semi major axis: 42157 km
RCS: Unknown
Launch date: October 31, 1981
Source: United States (US)
Launch site: AIR FORCE EASTERN TEST RANGE (AFETR)
Your satellite tracking list
COSMOS 1743
Track 1 satellite(s)




NASA's NSSDC Master Catalog

Two Line Element Set (TLE):
1 12930U 81107A   25199.55839154 -.00000065  00000-0  00000-0 0  9990
2 12930   5.5536 358.6661 1028153  41.1075  94.4711  1.00298974  4521
Source of the keplerian elements: McCants